• Join FlightAware (Why Join?)
  • Login
  • US Flag 
11:45PM EST


 

Airport Tracker/Info


-or-


 

Live Flight TrackerFlight Track Log ✈ DAL3721 ✈ 09-May-2013 ✈ KDTW - KCRW

Flight Track Log - Related Links

Times and Time Zones

All times are in EDT time to prevent confusion due to time zone crossing. See the DAL3721 flight status page for this flight to view local times or setup timezone preferences in your user account.

Time Position Orientation Groundspeed Altitude Reporting Facility
EDT Latitude Longitude Course Direction KTS MPH feet Rate Location/Type
02:46PM 42.2017 -83.3583 102° East 165 190 1,300  Level Cleveland Center
02:46PM 42.1617 -83.3678 190° South 200 230 3,100 2,642 Climbing Cleveland Center
02:48PM 42.1031 -83.3819 190° South 215 247 6,100 2,607 Climbing Cleveland Center
02:49PM 42.1210 -82.7630 114° Southeast  Level FlightAware Approximate
02:49PM 42.0775 -83.3136 117° Southeast 258 297 8,400  Level Cleveland Center
02:50PM 42.1030 -82.6135 98° East  Level FlightAware Approximate
02:50PM 42.0806 -83.1850 88° East 296 341 10,900  Level Cleveland Center
02:51PM 42.0833 -82.4666 102° East  Level FlightAware Approximate
02:51PM 42.0833 -83.0619 88° East 306 352 12,500  Level Cleveland Center
02:52PM 42.0842 -82.9250 89° East 337 388 14,000 1,450 Climbing Cleveland Center
02:53PM 42.0847 -82.7850 90° East 356 410 15,400 1,350 Climbing Cleveland Center
02:54PM 42.0853 -82.6367 90° East 382 440 16,700 1,250 Climbing Cleveland Center
02:55PM 42.0817 -82.4828 92° East 402 463 17,900 1,200 Climbing Cleveland Center
02:56PM 42.0319 -82.3472 116° Southeast 388 447 19,100 1,200 Climbing Cleveland Center
02:57PM 41.9417 -82.2358 137° Southeast 409 471 20,300 1,050 Climbing Cleveland Center
02:58PM 41.8742 -82.1503 137° Southeast 409 471 21,200 1,100 Climbing Cleveland Center
02:59PM 41.7675 -82.0169 137° Southeast 425 489 22,500 1,250 Climbing Cleveland Center
03:00PM 41.6792 -81.9064 137° Southeast 432 497 23,700 1,200 Climbing Cleveland Center
03:01PM 41.5889 -81.7936 137° Southeast 438 504 24,900 650 Climbing Cleveland Center
03:02PM 41.4744 -81.7581 167° South 430 495 25,000 50 Climbing Cleveland Center
03:03PM 41.3600 -81.7533 178° South 424 488 25,000  Level Cleveland Center
03:04PM 41.2306 -81.7539 180° South 451 519 25,000  Level Cleveland Center
03:05PM 41.0806 -81.7594 182° South 472 543 25,000  Level Cleveland Center
03:06PM 40.9469 -81.7597 180° South 491 565 25,000  Level Cleveland Center
03:08PM 40.7017 -81.7589 180° South 486 559 25,000  Level Indianapolis Center
03:09PM 40.5647 -81.7597 180° South 488 562 25,000  Level Indianapolis Center
03:10PM 40.4281 -81.7511 177° South 488 562 25,000  Level Indianapolis Center
03:11PM 40.2931 -81.7175 169° South 489 563 25,000  Level Indianapolis Center
03:12PM 40.1342 -81.6811 170° South 493 567 25,000  Level Indianapolis Center
03:13PM 39.9967 -81.6497 170° South 497 572 25,000  Level Indianapolis Center
03:14PM 39.8542 -81.6183 170° South 496 571 25,000 -97 Level Indianapolis Center
03:15PM 39.7161 -81.6058 176° South 493 567 24,800 -823 Descending Indianapolis Center
03:16PM 39.5864 -81.6061 180° South 474 545 23,300 -1,584 Descending Indianapolis Center
03:17PM 39.4617 -81.6042 179° South 450 518 21,500 -1,728 Descending Indianapolis Center
03:18PM 39.3342 -81.6039 180° South 456 525 19,700 -1,742 Descending Indianapolis Center
03:19PM 39.2100 -81.6017 179° South 448 516 17,900 -1,887 Descending Indianapolis Center
03:20PM 39.0725 -81.5972 179° South 415 478 15,800 -1,935 Descending Indianapolis Center
03:21PM 38.9578 -81.5994 181° South 412 474 13,900 -1,887 Descending Indianapolis Center
03:22PM 38.8478 -81.5986 180° South 398 458 11,900 -1,403 Descending Indianapolis Center
03:23PM 38.7508 -81.5981 180° South 358 412 11,000 -871 Descending Indianapolis Center
03:24PM 38.6536 -81.5833 173° South 301 346 10,100 -1,790 Descending Indianapolis Center
03:25PM 38.5903 -81.5239 144° Southeast 295 339 7,300 -2,371 Descending Indianapolis Center
03:26PM 38.5378 -81.4500 132° Southeast 288 331 5,200 -1,113 Descending Indianapolis Center
03:27PM 38.4903 -81.3797 131° Southeast 271 312 5,000 -532 Descending Indianapolis Center
03:28PM 38.4447 -81.3508 154° Southeast 227 261 4,100 -484 Descending Indianapolis Center
03:29PM 38.4275 -81.4242 253° West 195 224 4,000 -387 Descending Indianapolis Center
03:30PM 38.4314 -81.4856 275° West 182 209 3,300 -919 Descending Indianapolis Center
03:31PM 38.4197 -81.5333 253° West 160 184 2,100 -968 Descending Indianapolis Center
03:32PM 38.3944 -81.5689 228° Southwest 145 167 1,300 -774 Descending Indianapolis Center